Flag for Germany Weather past 2 weeks in Ehingen (Donau), Baden-Württemberg, Germany

Now
77 °F

Scattered clouds.


Feels Like: 79 °F
Forecast: 63 / 92 °F
Wind: 2 mph from Southwest

Location: Laupheim Airport

Current Time: Jul 6, 2015 at 1:24:10 PM

Latest Report: Jul 6, 2015 at 12:20 PM


Visibility: N/A

Pressure: 30.21 "Hg (28.50 "Hg at 508m altitude)

Humidity: 65%

Dew point: 64 °F

Location of Ehingen (Donau)Location

Historic Weather in Ehingen (Donau) — Graph

°F

Ehingen (Donau) temperature yesterday

Maximum temperature yesterday: 93 °F (at 2:20 PM)
Minimum temperature yesterday: 66 °F (at 3:20 AM)
Average temperature yesterday: 80 °F

Past Weeks' High & Low Weather Summary

 TemperatureHumidityPressure
High93 °F (Jul 5, 2:20 PM)100% (Jun 22, 3:20 AM)30.30 "Hg (Jun 22, 3:20 AM)
Low46 °F (Jun 25, 5:20 AM)32% (Jul 5, 5:20 PM)29.74 "Hg (Jun 22, 9:20 PM)
Average67 °F69%30.14 "Hg
* Reported Jun 21 11:20 AM — Jul 6 11:20 AM, Ehingen (Donau), Weather by CustomWeather, © 2015

Note: Actual official high and low records may vary slightly from our data, if they occured in-between our weather recording intervals... More about our weather records

Advertising

Ehingen (Donau) weather history for previous 24 hours

 ConditionsComfort  
Time TempWeatherWind HumidityBarometerVisibility
11:20 AM
Mon, Jul 6
73 °FScattered clouds.3 mph74%30.21 "HgN/A
10:20 AM73 °FScattered clouds.5 mph74%30.21 "HgN/A
9:20 AM72 °FScattered clouds.5 mph73%30.24 "HgN/A
8:20 AM70 °FBroken clouds.3 mph78%30.21 "HgN/A
7:20 AM70 °FBroken clouds.2 mph83%30.21 "HgN/A
6:20 AM70 °FPassing clouds.2 mph88%30.21 "HgN/A
5:20 AM68 °FPartly cloudy.3 mph94%30.18 "HgN/A
4:20 AM68 °FPartly cloudy.2 mph94%30.15 "HgN/A
3:20 AM70 °FThunderstorms. Partly cloudy.1 mph94%30.12 "HgN/A
2:58 AM72 °FThunderstorms. Passing clouds.8 mph78%30.15 "Hg4 mi
2:20 AM77 °FThunderstorms. Partly cloudy.6 mph57%30.09 "HgN/A
1:20 AM77 °FPassing clouds.6 mph61%30.07 "HgN/A
12:20 AM77 °FPassing clouds.7 mph69%30.04 "HgN/A
11:20 PM
Sun, Jul 5
79 °FPassing clouds.7 mph70%30.04 "HgN/A
10:20 PM81 °FScattered clouds.5 mph62%30.01 "HgN/A
9:20 PM84 °FScattered clouds.3 mph51%30.01 "HgN/A
8:20 PM88 °FScattered clouds.3 mph46%29.98 "HgN/A
7:20 PM91 °FPassing clouds.6 mph38%30.01 "HgN/A
6:20 PM93 °FPassing clouds.6 mph32%30.01 "HgN/A
5:20 PM93 °FPassing clouds.7 mph32%30.01 "HgN/A
4:20 PM93 °FPassing clouds.5 mph36%30.04 "HgN/A
3:20 PM93 °FPassing clouds.2 mph34%30.07 "HgN/A
2:20 PM93 °FPassing clouds.2 mph39%30.07 "HgN/A
1:20 PM90 °FPassing clouds.6 mph43%30.07 "HgN/A
Weather by CustomWeather, © 2015

See weather overviewHow to use our weather pages